When you browse on this site, cookies collect data to enhance your experience and personalize the content and advertising you see.
Visit our Privacy Policy to learn more. By continuing to use the site, you agree to this use of cookies and data.
  • In Hungary
  • List of Countries
  • For 7 days
  • Water Temperature
  • Weather Map
  • News
  • Weather Widgets
  • user-avatar
    Login

    Hourly Weather Bukarevo

    Today, 25 January, Saturday

    Time Temperature Precipitation Wind Pressure Humidity
    00:00 -1°C° 0.3 mm 3 mps 734 mmHg 95%
    01:00 -1°C° 0.3 mm 3 mps 734 mmHg 96%
    02:00 -1°C° 0.3 mm 3 mps 734 mmHg 97%
    03:00 -1°C° 0.1 mm 3 mps 734 mmHg 93%
    04:00 -2°C° 0.1 mm 4 mps 734 mmHg 89%
    05:00 -1°C° 0.1 mm 4 mps 734 mmHg 85%
    06:00 -2°C° 0 mm 4 mps 734 mmHg 86%
    07:00 -3°C° 0 mm 4 mps 734 mmHg 86%
    08:00 -2°C° 0 mm 3 mps 734 mmHg 86%
    09:00 -2°C° 0 mm 4 mps 733 mmHg 86%
    10:00 -1°C° 0 mm 4 mps 733 mmHg 86%
    11:00 -1°C° 0 mm 5 mps 732 mmHg 85%
    12:00 -1°C° 0.4 mm 5 mps 732 mmHg 82%
    13:00 -2°C° 0.4 mm 6 mps 732 mmHg 79%
    14:00 -2°C° 0.4 mm 7 mps 731 mmHg 76%
    15:00 -3°C° 0 mm 6 mps 732 mmHg 75%
    16:00 -4°C° 0 mm 6 mps 733 mmHg 75%
    17:00 -4°C° 0 mm 6 mps 733 mmHg 75%
    18:00 -5°C° 0 mm 6 mps 734 mmHg 77%
    19:00 -5°C° 0 mm 6 mps 734 mmHg 79%
    20:00 -5°C° 0 mm 6 mps 734 mmHg 81%
    21:00 -5°C° 0 mm 6 mps 735 mmHg 79%
    22:00 -5°C° 0 mm 6 mps 736 mmHg 78%
    23:00 -5°C° 0 mm 6 mps 737 mmHg 76%

    Tomorrow, 26 January, Sunday

    Time Temperature Precipitation Wind Pressure Humidity
    00:00 -5°C° 0 mm 6 mps 738 mmHg 77%
    01:00 -6°C° 0 mm 6 mps 739 mmHg 78%
    02:00 -6°C° 0 mm 5 mps 740 mmHg 79%
    03:00 -6°C° 0 mm 5 mps 740 mmHg 80%
    04:00 -6°C° 0 mm 5 mps 741 mmHg 80%
    05:00 -5°C° 0 mm 4 mps 742 mmHg 81%
    06:00 -7°C° 0 mm 4 mps 742 mmHg 82%
    07:00 -7°C° 0 mm 4 mps 743 mmHg 82%
    08:00 -6°C° 0 mm 3 mps 744 mmHg 83%
    09:00 -5°C° 0 mm 3 mps 744 mmHg 81%
    10:00 -5°C° 0 mm 3 mps 744 mmHg 79%
    11:00 -4°C° 0 mm 3 mps 745 mmHg 78%
    12:00 -4°C° 0 mm 3 mps 744 mmHg 77%
    13:00 -3°C° 0 mm 4 mps 744 mmHg 76%
    14:00 -3°C° 0 mm 4 mps 744 mmHg 75%
    15:00 -4°C° 0.2 mm 5 mps 743 mmHg 81%
    16:00 -4°C° 0.2 mm 5 mps 742 mmHg 87%
    17:00 -4°C° 0.2 mm 6 mps 741 mmHg 93%
    18:00 -3°C° 0.2 mm 6 mps 741 mmHg 92%
    19:00 -3°C° 0.2 mm 6 mps 740 mmHg 92%
    20:00 -2°C° 0.2 mm 6 mps 740 mmHg 92%
    21:00 -1°C° 0.1 mm 6 mps 739 mmHg 92%
    22:00 +1°C° 0.1 mm 6 mps 739 mmHg 92%
    23:00 +1°C° 0.1 mm 6 mps 739 mmHg 92%

    Day after tomorrow, 27 January, Monday

    Time Temperature Precipitation Wind Pressure Humidity
    00:00 +1°C° 0.1 mm 6 mps 739 mmHg 92%
    01:00 +1°C° 0.1 mm 5 mps 740 mmHg 92%
    02:00 +1°C° 0.1 mm 5 mps 740 mmHg 92%
    03:00 +1°C° 0.2 mm 5 mps 741 mmHg 93%
    04:00 +1°C° 0.2 mm 5 mps 741 mmHg 95%
    05:00 0°C° 0.2 mm 4 mps 742 mmHg 97%
    06:00 0°C° 0.2 mm 4 mps 742 mmHg 96%
    07:00 0°C° 0.2 mm 3 mps 743 mmHg 96%
    08:00 -1°C° 0.2 mm 2 mps 743 mmHg 96%
    09:00 -1°C° 0.1 mm 2 mps 744 mmHg 93%
    10:00 -2°C° 0.1 mm 2 mps 745 mmHg 89%
    11:00 0°C° 0.1 mm 1 mps 745 mmHg 86%
    12:00 0°C° 0 mm 1 mps 745 mmHg 86%
    13:00 0°C° 0 mm 1 mps 746 mmHg 86%
    14:00 0°C° 0 mm 1 mps 746 mmHg 86%
    15:00 -3°C° 0 mm 2 mps 746 mmHg 88%
    16:00 -3°C° 0 mm 2 mps 746 mmHg 90%
    17:00 -3°C° 0 mm 2 mps 746 mmHg 91%
    18:00 -4°C° 0.3 mm 2 mps 746 mmHg 92%
    19:00 -5°C° 0.3 mm 3 mps 747 mmHg 93%
    20:00 -5°C° 0.3 mm 3 mps 747 mmHg 94%
    21:00 -5°C° 0.4 mm 3 mps 747 mmHg 94%
    22:00 -5°C° 0.4 mm 3 mps 747 mmHg 94%
    23:00 -5°C° 0.4 mm 3 mps 746 mmHg 94%

    28 January, Tuesday

    Time Temperature Precipitation Wind Pressure Humidity
    00:00 -5°C° 0.2 mm 3 mps 746 mmHg 94%
    01:00 -5°C° 0.2 mm 3 mps 746 mmHg 94%
    02:00 -5°C° 0.2 mm 3 mps 746 mmHg 95%
    03:00 -3°C° 0.2 mm 2 mps 745 mmHg 95%
    04:00 -3°C° 0.2 mm 2 mps 745 mmHg 96%
    05:00 -3°C° 0.2 mm 2 mps 745 mmHg 96%
    06:00 -2°C° 0.3 mm 2 mps 745 mmHg 96%
    07:00 -2°C° 0.3 mm 2 mps 745 mmHg 97%
    08:00 -2°C° 0.3 mm 2 mps 745 mmHg 97%
    09:00 -1°C° 0.3 mm 2 mps 745 mmHg 97%
    10:00 -1°C° 0.3 mm 2 mps 745 mmHg 98%
    11:00 -1°C° 0.3 mm 2 mps 745 mmHg 98%
    12:00 +1°C° 0.2 mm 2 mps 745 mmHg 98%
    13:00 +1°C° 0.2 mm 2 mps 744 mmHg 98%
    14:00 +1°C° 0.2 mm 2 mps 744 mmHg 98%
    15:00 +1°C° 0.1 mm 2 mps 744 mmHg 98%
    16:00 +1°C° 0.1 mm 2 mps 744 mmHg 98%
    17:00 +1°C° 0.1 mm 2 mps 744 mmHg 98%
    18:00 -1°C° 0.1 mm 2 mps 744 mmHg 98%
    19:00 -1°C° 0.1 mm 2 mps 744 mmHg 98%
    20:00 -1°C° 0.1 mm 2 mps 744 mmHg 97%
    21:00 -1°C° 0.1 mm 2 mps 744 mmHg 98%
    22:00 -1°C° 0.1 mm 2 mps 743 mmHg 98%
    23:00 -2°C° 0.1 mm 2 mps 743 mmHg 98%

    29 January, Wednesday

    Time Temperature Precipitation Wind Pressure Humidity
    00:00 -1°C° 0.2 mm 2 mps 743 mmHg 98%
    01:00 -1°C° 0.2 mm 3 mps 743 mmHg 97%
    02:00 0°C° 0.2 mm 3 mps 743 mmHg 97%
    03:00 0°C° 0.2 mm 3 mps 743 mmHg 97%
    04:00 0°C° 0.2 mm 3 mps 743 mmHg 97%
    05:00 0°C° 0.2 mm 3 mps 743 mmHg 97%
    06:00 0°C° 0.1 mm 3 mps 743 mmHg 97%
    07:00 0°C° 0.1 mm 3 mps 743 mmHg 97%
    08:00 0°C° 0.1 mm 3 mps 743 mmHg 97%
    09:00 0°C° 0 mm 3 mps 743 mmHg 96%
    10:00 0°C° 0 mm 3 mps 743 mmHg 95%
    11:00 0°C° 0 mm 3 mps 743 mmHg 93%
    12:00 0°C° 0 mm 3 mps 743 mmHg 94%
    13:00 0°C° 0 mm 3 mps 743 mmHg 95%
    14:00 0°C° 0 mm 3 mps 743 mmHg 96%
    15:00 0°C° 0 mm 3 mps 743 mmHg 95%
    16:00 0°C° 0 mm 3 mps 743 mmHg 95%
    17:00 0°C° 0 mm 3 mps 743 mmHg 94%
    18:00 0°C° 0 mm 3 mps 742 mmHg 95%
    19:00 0°C° 0 mm 3 mps 742 mmHg 96%
    20:00 0°C° 0 mm 3 mps 742 mmHg 97%
    21:00 -1°C° 0 mm 3 mps 742 mmHg 97%
    22:00 -1°C° 0 mm 3 mps 742 mmHg 97%
    23:00 -1°C° 0 mm 3 mps 742 mmHg 96%

    30 January, Thursday

    Time Temperature Precipitation Wind Pressure Humidity
    00:00 -1°C° 0 mm 3 mps 741 mmHg 96%
    01:00 0°C° 0 mm 3 mps 741 mmHg 97%
    02:00 -1°C° 0 mm 4 mps 741 mmHg 97%
    03:00 -1°C° 0 mm 4 mps 740 mmHg 97%
    04:00 -1°C° 0 mm 4 mps 740 mmHg 96%
    05:00 -2°C° 0 mm 4 mps 740 mmHg 96%
    06:00 -2°C° 0.1 mm 4 mps 739 mmHg 96%
    07:00 -2°C° 0.1 mm 4 mps 739 mmHg 95%
    08:00 -2°C° 0.1 mm 4 mps 739 mmHg 95%
    09:00 -2°C° 0.1 mm 4 mps 739 mmHg 94%
    10:00 -2°C° 0.1 mm 4 mps 738 mmHg 93%
    11:00 -2°C° 0.1 mm 4 mps 738 mmHg 93%
    12:00 -2°C° 0.1 mm 4 mps 738 mmHg 93%
    13:00 -2°C° 0.1 mm 4 mps 737 mmHg 93%
    14:00 -2°C° 0.1 mm 4 mps 737 mmHg 93%
    15:00 -3°C° 0.2 mm 4 mps 737 mmHg 94%
    16:00 -3°C° 0.2 mm 4 mps 736 mmHg 94%
    17:00 -3°C° 0.2 mm 4 mps 736 mmHg 95%
    18:00 -3°C° 0.4 mm 4 mps 736 mmHg 95%
    19:00 -4°C° 0.4 mm 4 mps 736 mmHg 95%
    20:00 -4°C° 0.4 mm 4 mps 735 mmHg 95%
    21:00 -4°C° 0.4 mm 4 mps 735 mmHg 95%
    22:00 -4°C° 0.4 mm 4 mps 735 mmHg 95%
    23:00 -4°C° 0.4 mm 4 mps 735 mmHg 95%
    Show more